Location: Unspecified
(0.0000°N, 0.0000°E)
Time: 16:49:49
(UTC+00:00)

STARLINK-4342 - Pass Details

Date: 31 October 2025
Orbit: 549 x 550 km, 97.6° (Epoch: 29 March)

Event Time Altitude Azimuth Distance (km) Brightness Sun altitude
Rises 18:11:11 0° 346° (NNW) 2,703 7.1 -6.7°
Reaches altitude 10° 18:13:44 10° 329° (NNW) 1,814 6.5 -7.3°
Maximum altitude 18:16:38 20° 281° (WNW) 1,296 6.5 -8.0°
Drops below altitude 10° 18:19:33 10° 233° (SW) 1,820 7.5 -8.7°
Sets 18:22:07 0° 216° (SW) 2,716 8.0 -9.3°
